Location: Demmingen
(48.6757°N, 10.4375°E)
Time: 05:27:58
(UTC+00:00)

CZ-2C R/B - Pass Details

Date: 11 August 2024
Orbit: 782 x 869 km, 98.3° (Epoch: 08 September)

Event Time Altitude Azimuth Distance (km) Brightness Sun altitude
Exits shadow 00:30:16 27° 128° (SE) 1,573 3.9 -24.5°
Maximum altitude 00:32:58 50° 69° (ENE) 1,077 3.4 -24.3°
Drops below altitude 10° 00:38:12 10° 355° (N) 2,454 6.0 -24.0°
Sets 00:40:36 0° 350° (N) 3,379 6.8 -23.9°
